COSMOS 2251 DEB, 34611

Orbit data source: Space-Track

COSMOS 2251 DEB, 34611 is space debris in LEO originally from a launch on Wed, 16 Jun 1993 UTC launched from the Plesetsk Missile And Space Complex (PKMTR). The debris from Iridium 33, an American commercial communications satellite, has been tracked extensively since its accidental collision with the defunct Russian satellite Cosmos 2251 in 2009. This event, occurring at high speed in low Earth orbit (LEO), generated thousands of pieces of space debris, significantly increasing the risk of further collisions. The Iridium 33 debris cloud has impacted space traffic management and orbital debris mitigation strategies, making it a subject of ongoing study in space situational awareness.

Loading next visibility...
Identifier
34611, 1993-036WG
Orbit
LEO
Country
Flag of CISCIS
Related business
Manufacturer
Unknown
Mission
Spacecraft
Bus & Motor
Unknown
Mass
Unknown
Launch date (UTC)
1993-06-16 (33 years ago)
Launch vehicle
Unknown
Launch site
Plesetsk Missile And Space Complex (PKMTR)
Object type
Payload
Rocket body
Debris
Shape & HBR
Unknown shape, 0.1 m
Radar Cross Section
Medium (>0.1 m² and <1 m²)

Expand to show TLE details & history
Last TLE update: 20 hours ago

TLE from 20 hours ago
0 COSMOS 2251 DEB
1 34611U 93036WG  26206.50360497  .00007477  00000-0  11528-2 0  9990
2 34611  74.0520  24.4824 0021075  12.9330  18.2602 14.73409352916971
Epoch: 2026-07-25T12:05Z
TLE epoch observation values (Epoch: 2026-07-25T12:05:11.469Z)
Latitude
29.9984°
Longitude
-90.58649°
Altitude
639.613 km
Speed
7.549 km/s
True Right ascension
02h 15m 42s
True Declination
29° 50' 50"
Sunlit
Object was in daylight at epoch
Visualization orbit readout
Latitude
Unknown
Longitude
Unknown
Altitude
Unknown
Speed
Unknown
Apparent Right ascension
Unknown
Apparent Declination
Unknown
Sunlit
N/A
Visualization observer readout
Local Sidereal Time
21:11:48
Azimuth
Unknown
Elevation
Unknown
Doppler factor
Unknown
Orbital elements
Apogee altitude
662.594 km
Perigee altitude
632.979 km
Semi-major axis
7,025.924 km
Eccentricity
0.00211
Inclination
74.052°
RAAN
24.4824°
Arg. of periapsis
12.933°
True anomaly
18.33606°
Mean anomaly
18.2602°
Eccentric anomaly
18.29811°
Mean motion
3.68543 °/min
Orbital period
97.68 mins
BSTAR
0.0011528

Documentation

Showing up to 5 results
|